This is the latest recevied weather packets stored in our database for station/object OK1UOJ. If no packets are shown the sender has not sent any weather packets the latest 1 day(s).
| Time | Temp. | Humidity | Pressure | Rain* | Wind** | Luminosity | Snow |
|---|---|---|---|---|---|---|---|
| 1777983817 | 24.44° C | 56% | 1008.2 hPa | - | 2.68 m/s, 124° | - | - |
| 1777983539 | 24.44° C | 60% | 1008.3 hPa | - | 2.68 m/s, 138° | - | - |
| 1777982707 | 24.44° C | 58% | 1008.4 hPa | - | 2.68 m/s, 134° | - | - |
| 1777982703 | 24.44° C | 58% | 1008.4 hPa | - | 2.68 m/s, 134° | - | - |
| 1777982424 | - | - | - | - | 3.58 m/s, 132° | - | - |
| 1777981867 | - | - | - | - | 2.68 m/s, 117° | - | - |
| 1777981031 | - | - | - | - | 2.24 m/s, 129° | - | - |
| 1777980753 | 23.33° C | 66% | 1008.8 hPa | - | 2.24 m/s, 147° | - | - |
| 1777980474 | 23.33° C | 67% | 1008.8 hPa | - | 1.79 m/s, 108° | - | - |
| 1777979917 | 22.78° C | 74% | 1009 hPa | - | 2.24 m/s, 126° | - | - |
| 1777979082 | 22.22° C | 70% | 1009.1 hPa | - | 2.68 m/s, 129° | - | - |
| 1777978804 | 21.67° C | 75% | 1009.1 hPa | - | 2.24 m/s, 132° | - | - |
| 1777978525 | 21.67° C | 69% | 1009.2 hPa | - | 2.68 m/s, 123° | - | - |
| 1777978252 | 22.22° C | 66% | 1009.2 hPa | - | 2.24 m/s, 129° | - | - |
| 1777978252 | 22.22° C | 66% | 1009.2 hPa | - | 2.24 m/s, 129° | - | - |
| 1777978247 | 22.22° C | 66% | 1009.2 hPa | - | 2.24 m/s, 129° | - | - |
| 1777977968 | 22.78° C | 70% | 1009.3 hPa | - | 2.68 m/s, 129° | - | - |
| 1777976854 | 22.78° C | 66% | 1009.4 hPa | - | 3.13 m/s, 135° | - | - |
| 1777976576 | 22.22° C | 65% | 1009.5 hPa | - | 2.68 m/s, 130° | - | - |
| 1777976019 | 21.67° C | 72% | 1009.5 hPa | - | 3.58 m/s, 134° | - | - |
| 1777975740 | 21.67° C | 72% | 1009.5 hPa | - | 3.13 m/s, 136° | - | - |
| 1777975462 | 21.67° C | 74% | 1009.5 hPa | - | 3.13 m/s, 134° | - | - |
| 1777975183 | 21.11° C | 77% | 1009.5 hPa | - | 3.13 m/s, 131° | - | - |
| 1777974910 | 21.11° C | 79% | 1009.6 hPa | - | 2.68 m/s, 132° | - | - |
| 1777974905 | 21.11° C | 79% | 1009.6 hPa | - | 2.68 m/s, 132° | - | - |
* Rain since midnight (hover to see other rain measurements)
** Current wind speed in m/s (hover to see current wind gust speed)